Flag for Germany Weather past 2 weeks in Leonberg, Baden-Württemberg, Germany

Now
19 °F

Clear.


Feels Like: 10 °F
Forecast: 15 / 29 °F
Wind: 7 mph from North

Location: Stuttgart-Echterdingen

Current Time: Dec 28, 2014 at 9:16:55 PM

Latest Report: Dec 28, 2014 at 8:50 PM


Visibility: 10 mi

Pressure: 30.39 "Hg

Humidity: 63%

Dew point: 9 °F

Location of LeonbergLocation

Historic Weather in Leonberg — Graph

°F

Leonberg temperature yesterday

Maximum temperature yesterday: 36 °F (at 1:50 PM)
Minimum temperature yesterday: 27 °F (at 1:50 AM)
Average temperature yesterday: 33 °F

Past Weeks' High & Low Weather Summary

 TemperatureHumidityPressure
High54 °F (Dec 18, 5:50 PM)100% (Dec 14, 2:50 PM)30.51 "Hg (Dec 14, 2:50 PM)
Low19 °F (Dec 28, 5:20 PM)38% (Dec 23, 2:20 PM)29.42 "Hg (Dec 27, 3:50 PM)
Average41 °F83%30.10 "Hg
* Reported Dec 13 8:20 PM — Dec 28 8:20 PM, Leonberg, Weather by CustomWeather, © 2014

Note: Actual official high and low records may vary slightly from our data, if they occured in-between our weather recording intervals... More about our weather records

Advertising

Leonberg weather history for previous 24 hours

 ConditionsComfort  
Time TempWeatherWind HumidityBarometerVisibility
8:20 PM
Dec 28
19 °FClear.7 mph68%30.36 "Hg10 mi
7:50 PM19 °FClear.6 mph68%30.33 "Hg10 mi
7:20 PM19 °FClear.6 mph68%30.33 "Hg10 mi
6:50 PM19 °FClear.7 mph68%30.30 "Hg10 mi
6:20 PM19 °FClear.6 mph68%30.30 "Hg10 mi
5:50 PM19 °FClear.7 mph73%30.27 "Hg10 mi
5:20 PM19 °FClear.8 mph73%30.24 "Hg10 mi
4:50 PM21 °FClear.7 mph68%30.21 "Hg10 mi
4:20 PM21 °FSunny.9 mph74%30.18 "Hg10 mi
3:50 PM23 °FScattered clouds.8 mph74%30.15 "HgN/A
3:20 PM23 °FScattered clouds.7 mph74%30.12 "HgN/A
2:50 PM23 °FBroken clouds.9 mph80%30.09 "HgN/A
2:20 PM23 °FPartly sunny.10 mph80%30.07 "HgN/A
1:50 PM25 °FBroken clouds.10 mph80%30.07 "HgN/A
1:20 PM25 °FBroken clouds.10 mph80%30.04 "HgN/A
12:50 PM25 °FLight snow. Broken clouds.12 mph86%30.01 "Hg4 mi
12:20 PM25 °FLight snow. Ice fog.15 mph93%30.01 "Hg2 mi
11:50 AM25 °FLight snow. Ice fog.13 mph93%29.98 "Hg2 mi
11:20 AM25 °FLight snow. Ice fog.12 mph93%29.95 "Hg3 mi
10:50 AM25 °FLight snow. Broken clouds.14 mph86%29.92 "Hg4 mi
10:20 AM25 °FLight snow. Partly sunny.15 mph86%29.89 "Hg4 mi
9:50 AM27 °FLight snow. Partly sunny.16 mph86%29.86 "Hg6 mi
9:20 AM27 °FLight snow. Partly sunny.15 mph86%29.86 "HgN/A
8:50 AM27 °FLight snow. Partly sunny.12 mph86%29.80 "Hg4 mi
8:20 AM27 °FLight snow. Ice fog.12 mph93%29.77 "Hg2 mi
7:50 AM27 °FLight snow. Ice fog.12 mph93%29.74 "Hg2 mi
7:20 AM27 °FSnow. Ice fog.10 mph93%29.74 "Hg1 mi
6:50 AM27 °FSnow. Ice fog.10 mph93%29.71 "Hg1 mi
6:20 AM27 °FLight snow. Ice fog.10 mph93%29.68 "Hg3 mi
5:50 AM28 °FLight snow. Passing clouds.9 mph86%29.65 "Hg4 mi
5:20 AM28 °FLight snow. Passing clouds.9 mph93%29.62 "Hg4 mi
4:20 AM28 °FLight snow. Ice fog.13 mph93%29.59 "Hg3 mi
3:50 AM30 °FLight snow. Ice fog.10 mph93%29.56 "Hg2 mi
3:20 AM30 °FLight snow. Ice fog.9 mph93%29.56 "Hg2 mi
2:50 AM30 °FLight snow. Ice fog.8 mph100%29.53 "Hg3 mi
2:20 AM32 °FLight snow. Ice fog.6 mph93%29.50 "Hg2 mi
1:50 AM32 °FLight snow. Ice fog.6 mph100%29.50 "Hg2 mi
1:20 AM32 °FSnow. Ice fog.6 mph100%29.50 "Hg1 mi
12:50 AM32 °FSnow. Ice fog.6 mph100%29.50 "Hg1 mi
12:20 AM32 °FChilly.2 mph100%29.47 "Hg4 mi
11:50 PM
Dec 27
32 °FLight snow. Partly cloudy.2 mph100%29.47 "Hg4 mi
11:20 PM32 °FLight snow. Partly cloudy.2 mph100%29.47 "Hg3 mi
10:50 PM32 °FLight snow. Partly cloudy.2 mph100%29.47 "Hg3 mi
10:20 PM32 °FLight snow. Partly cloudy.3 mph100%29.47 "Hg3 mi
9:50 PM34 °FLight snow. Partly cloudy.3 mph100%29.45 "Hg3 mi
9:20 PM34 °FSnow. Passing clouds.5 mph100%29.45 "Hg1 mi
Weather by CustomWeather, © 2014

See weather overviewHow to use our weather pages